www.pogodaiklimat.ru
ПОГОДА в Харрисонвилле
Время
и дата
03:35 06.02
03:55 06.02
04:15 06.02
04:35 06.02
04:55 06.02
05:15 06.02
05:35 06.02
05:55 06.02
06:15 06.02
06:35 06.02
06:55 06.02
07:15 06.02
07:35 06.02
07:55 06.02
08:15 06.02
08:35 06.02
08:55 06.02
09:15 06.02
09:35 06.02
09:55 06.02
10:15 06.02
10:35 06.02
10:55 06.02
11:15 06.02
11:35 06.02
11:55 06.02
12:15 06.02
12:35 06.02
12:55 06.02
13:15 06.02
13:35 06.02
13:55 06.02
14:15 06.02
14:35 06.02
14:55 06.02
15:15 06.02
15:35 06.02
15:55 06.02
16:15 06.02
16:35 06.02
16:55 06.02
17:15 06.02
17:35 06.02
17:55 06.02
18:15 06.02
18:35 06.02
18:55 06.02
19:15 06.02
Ветер
(напр.,м/с)
Видим. Явления Облачность Т
(С)
Тd
(С)
f
(%)
Тe
(С)
Тes
(С)
Комфортность P
(гПа)
Po
(гПа)
Тmin
(С)
Tmax
(С)
R
(мм)
R24
(мм)
S
(см)
ЮВ 2 16 км ясно +2.0 -2.0 75 -1 -1 984.8
ЮВ 4 16 км ясно +3.0 -1.0 75 -2 -2 984.4
ЮВ 3 16 км ясно +3.0 -1.0 75 -1 -1 984.4
ЮВ 3 16 км ясно +3.0 -1.0 75 -1 -1 984.1
ЮВ 3 16 км ясно +4.0 -1.0 70 +1 +1 984.1
ЮВ 4 16 км ясно +5.0 -1.0 65 +1 +1 983.4
ЮВ 4 16 км ясно +5.0 -1.0 65 +1 +1 983.4
ЮВ 4 16 км ясно +5.0 -1.0 65 +1 +1 983.1
ЮВ 4 16 км ясно +5.0 -1.0 65 +1 +1 982.8
ЮВ 5 16 км ясно +5.0 0.0 70 +1 +1 982.8
ЮВ 5 16 км ясно +5.0 0.0 70 +1 +1 982.5
ЮВ 4 16 км ясно +5.0 0.0 70 +1 +1 982.5
ЮВ 5 16 км ясно +5.0 0.0 70 +1 +1 982.1
ЮВ 5 16 км ясно +6.0 0.0 65 +2 +2 981.5
ЮВ 6
{8}
16 км ясно +6.0 +1.0 70 +1 +2 981.2
16 км ясно +7.0 +1.0 66 +6 +7 980.8
ЮВ 5 16 км ясно +8.0 +2.0 66 +5 +5 980.5
ЮВ 6
{9}
16 км ясно +11.0 +4.0 62 +8 +9 979.8
Ю 7
{11}
16 км ясно +13.0 +6.0 62 +11 +11 979.5
Ю 9
{12}
16 км ясно +14.0 +7.0 63 +11 +12 979.2
Ю 7
{12}
16 км ясно +15.0 +7.0 59 +13 +15 978.9
Ю 9
{14}
16 км ясно +16.0 +8.0 59 +14 +15 978.5
Ю 7
{11}
16 км ясно +15.0 +8.0 63 +13 +15 978.5
Ю 7
{12}
16 км ясно +16.0 +8.0 59 +15 +16 977.9
Ю 7
{12}
16 км ясно +17.0 +8.0 55 +16 +18 977.5
Ю 8
{12}
16 км ясно +17.0 +8.0 55 +16 +17 976.9
Ю 9
{15}
16 км ясно +17.0 +9.0 59 +16 +16 976.2
Ю 9
{13}
16 км ясно +18.0 +9.0 56 +17 +18 975.9
Ю 9
{12}
16 км ясно +18.0 +9.0 56 +17 +18 975.6
Ю 8
{12}
16 км ясно +18.0 +10.0 59 +17 +18 974.9
Ю 7
{12}
16 км ясно +20.0 +10.0 53 +21 +23 комфорт 974.6
Ю 8
{13}
16 км 5/5 1290 м +21.0 +9.0 46 +22 +23 комфорт 974.6
Ю 8
{14}
16 км 8/8 1290 м +20.0 +10.0 53 +21 +21 комфорт 974.3
Ю 10
{14}
16 км 10/10 1350 м +21.0 +9.0 46 +22 +22 комфорт 974.3
ЮЗ 10
{14}
16 км 10/10 1410 м +20.0 +10.0 53 +21 +21 комфорт 974.3
ЮЗ 9
{13}
16 км 10/10 1410 м +21.0 +10.0 49 +22 +22 комфорт 974.3
ЮЗ 10
{15}
16 км 8/8 1500 м +21.0 +10.0 49 +22 +22 комфорт 973.9
ЮЗ 9
{13}
16 км 8/8 1260 м +21.0 +10.0 49 +22 +22 комфорт 973.9
ЮЗ 12
{16}
16 км 10/10 1260 м +21.0 +10.0 49 +22 +22 комфорт 973.9
ЮЗ 8
{15}
16 км 5/5 1320 м +19.0 +10.0 56 +19 +19 974.6
ЮЗ 8
{13}
16 км 5/5 1500 м +18.0 +10.0 59 +17 +17 975.3
ЮЗ 9
{13}
16 км 5/5 1410 м +17.0 +9.0 59 +16 +16 975.6
ЮЗ 8
{12}
16 км 8/8 1290 м +17.0 +9.0 59 +16 +16 975.9
ЮЗ 8
{10}
16 км 8/8 1050 м +16.0 +10.0 68 +14 +14 976.2
ЮЗ 8
{12}
16 км 10/10 1230 м +16.0 +10.0 68 +14 +14 976.6
ЮЗ 7
{12}
16 км 8/8 1170 м +16.0 +10.0 68 +15 +15 976.9
ЮЗ 8
{11}
16 км 5/5 1110 м +15.0 +10.0 72 +13 +13 976.9
ЮЗ 7
{10}
16 км ясно +15.0 +10.0 72 +13 +13 977.2
Местоположение метеостанции Lawrence Smith Memorial Airport: широта 38.6110 долгота -94.3121 высота над уровнем моря 272 м.
В архиве по умолчанию представлена погода в Харрисонвилле за последние 1-2 суток. Обновление информации о фактической погоде в базе происходит ежечасно! Архивные данные за месяц целиком и за предыдущие месяцы Вы можете получить, выбрав интересующий диапазон дат из раскрывающегося списка и нажав кнопку "Ввод!".
Внимание! Архив погоды МЕТАР в базе сайта по станциям, не включенным в климатический монитор, хранится не более 60 дней. Нет смысла пытаться выбрать более раннюю дату.
*Определитесь, кто Вы:
Внимание! Время в таблицах - местное (без учета летнего времени). Для получения всемирного времени необходимо вычесть поправку, которая равна -6 ч.
Смотрите также архив погоды в соседних городах и на ближайших метеорологических станциях:
Партнеры нашего сайта:      
Пояснения к столбцам:
  • Ветер - указаны скорость ветра в м/с - средняя за 10 мин, порывы в срок и между сроками (в фигурных скобках) и направление, откуда дует ветер: С - северный,
  • СВ - северо-восточный, В - восточный, ЮВ - юго-восточный, Ю - южный, ЮЗ - юго-западный, З - западный, СЗ - северо-западный.
  • Видимость - горизонтальная дальность видимости в метрах или километрах. При видимости от 1 до 10 км при отсутствии осадков обычно наблюдается дымка, при ухудшении видимости до 1 км и менее - туман. В сухую погоду видимость может ухудшаться дымом, пылью или мглою.
  • Явления - указаны атмосферные явления, наблюдавшиеся в срок или в последний час перед сроком; фигурными скобками обозначены явления, наблюдавшиеся между сроками (за 1-3 часа до срока); квадратными скобками обозначены град или гололедные отложения с указанием их диаметра в мм.
  • Облачность - указаны через наклонную черту общая и нижняя облачность в баллах и высота нижней границы облаков в метрах; квадратными скобками обозначены формы облаков: Ci - перистые, Cs - перисто-слоистые, Cc - перисто-кучевые, Ac - высококучевые, As - высокослоистые, Sc - слоисто-кучевые, Ns - слоисто-дождевые, Cu - кучевые, Cb - кучево-дождевые. Подробнее классификацию облаков см. в Атласе облаков (PDF).
  • T - Температура воздуха - температура, измеренная на высоте 2 м над землей.
  • Td - Температура точки росы - температура, при понижении до которой содержащийся в воздухе водяной пар достигнет насыщения.
  • f - Относительная влажность воздуха - влажноcть воздуха, измеренная на высоте 2 м над землей.
  • Te - Эффективная температура - температура, которую ощущает одетый по сезону человек в тени. Характеристика душности погоды. При расчете учитывается влияние влажности воздуха и скорости ветра на теплоощущения человека.
  • Tes - Эффективная температура на солнце - температура, которую ощущает человек, с поправкой на солнечный нагрев. Характеристика знойности погоды. Зависит от высоты солнца над горизонтом, облачности и скорости ветра. Ночью, в пасмурную погоду, а также при ветре 12 м/с и более поправка равна нулю.
  • P - Атмосферное давление - приведенное к уровню моря атмосферное давление.
  • Po - Атмосферное давление - измеренное на уровне метеостанции атмосферное давление.
  • Tmin - Минимальная температура - минимум температуры воздуха на высоте 2 м над землей.
  • Tmax - Максимальная температура - максимум температуры воздуха на высоте 2 м над землей.
  • R - Количество осадков - Количество выпавших осадков за период времени, мм. При наведении курсора мыши на число - период времени, за который выпало указанное количество осадков.
  • R24 - Количество осадков - Количество выпавших осадков за 24 часа, мм.
  • S - Снежный покров - Высота снежного покрова, см. При наведении курсора мыши на число - состояние снежного покрова и степень покрытия местности в баллах.